World > North America > United States > Missouri > Woodlandville

Woodlandville, MO Hourly Weather Conditions

Feedback E-mail the Weather

Quick WX

Woodlandville, MO Weather Maps

°F °C°F °C
Woodlandville Weather Map
UTC Time: 12/7/2022, 03:29
Your Time:

Woodlandville, MO Regional Weather

Expires:202212070400;;428233
ASUS43 KEAX 070305
RWREAX

WEATHER ROUNDUP FOR EASTERN KANSAS AND NORTHWEST MISSOURI
NATIONAL WEATHER SERVICE KANSAS CITY/PLEASANT HILL MO
900 PM CST TUE DEC 06 2022


MOZ041-047>049-056>058-063>065-088>090-097-070400-
...EASTERN AND SOUTHERN MISSOURI...
  
CITY           SKY/WX    TMP DP  RH WIND       PRES   REMARKS
ST. LOUIS INTL DRZL/FOG  47  45  93 N6        30.04R VSB 3/4          
SPIRIT OF STL  CLOUDY    46  45  96 N3        30.04R FOG              
COLUMBIA       CLOUDY    45  43  93 N3        30.05R FOG              
JEFFERSON CITY CLOUDY    47  45  93 CALM      30.05R FOG              
MEXICO         CLOUDY    43  43 100 CALM      30.05R FOG              
HANNIBAL       CLOUDY    45  39  81 CALM      30.06R                  
ROLLA          FOG       45  44  97 NW3       30.04R VSB 1/2          
LEBANON        FOG       45  45 100 NW7       30.05R VSB 3/4          
OSAGE BEACH    FOG       44  44 100 NW5         N/A  VSB 1            
SPRINGFIELD    FOG       44  43  96 N6        30.04R VSB 1            
BRANSON        CLOUDY    50  50 100 CALM      30.05R                  
JOPLIN         CLOUDY    44  42  93 N3        30.07R FOG              
WEST PLAINS    FOG       51  49  92 W3        30.03R VSB 1/4          
SIKESTON       FOG       54  54 100 CALM      30.00S VSB 1/4          

$$


SKY/WX - Weather  TMP - Temperature  DP - Dew Point  RH - Humidity
WIND - Wind Direction/Speed PRES - Barometric Pressure VSB - Visibility
WCI - Wind Chill Index E13G22 Wind - East Wind 13 mph/Gusts of 22 mph

Trending Headlines

Trending Entertainment Headlines

Woodlandville Radar Loop

Use the map search tool if you want to place a location marker on the radar map...

Woodlandville Quick Facts

National Two Day Weather Forecast


E-mail the Woodlandville Weather Forecast

Voice your opinion or tell us about page issues...